Wind_Speed
13 22 33 29 28 27 28 27 24 25 25 23 21 20 19 18 17 17 17 17 18 18 17 16 15 15 14 13 13 13 14 15 17 17 17 16 15 13 12 14 12 11 13
9 23 32 30 29 28 30 27 27 24 25 25 23 21 20 19 18 17 19 18 18 16 14 14 13 13 14 13 13 13 15 16 16 16 16 15 13 12 11 12 10 10 11
6 22 30 30 30 30 30 28 26 25 26 26 25 24 21 20 18 18 16 16 15 14 13 13 13 12 12 12 12 13 14 15 15 15 14 11 11 13 12 11 11 10 12
8 22 28 30 30 31 30 29 29 29 27 27 25 22 21 20 17 16 15 15 14 14 13 13 13 12 13 12 12 12 14 16 16 13 9 10 11 13 14 16 18 18 18
10 22 27 31 31 30 32 31 29 28 28 25 23 22 21 19 18 15 16 15 14 14 13 13 12 12 13 13 13 13 15 15 13 10 9 10 11 12 15 16 17 17 17
10 21 26 33 32 30 34 31 29 28 26 24 23 22 21 19 18 16 16 16 15 15 15 14 14 14 15 14 15 16 14 14 11 9 10 11 14 16 16 15 16 16 15
11 20 25 33 32 30 34 32 33 27 27 26 24 22 20 19 19 18 16 16 16 15 16 14 15 15 17 16 16 16 15 12 9 10 14 18 19 18 17 15 12 13 13
13 20 25 32 34 30 33 33 33 29 29 27 23 21 20 19 19 18 16 17 16 16 15 15 17 18 18 16 17 15 13 12 13 16 17 16 17 16 15 12 11 11 11
15 21 24 30 33 30 32 32 32 31 29 26 23 22 21 20 19 18 18 17 17 18 17 19 20 19 19 19 18 17 19 17 16 16 14 14 16 14 13 11 12 12 13
19 23 25 28 29 29 28 31 29 31 29 26 25 24 23 21 19 18 19 18 19 18 20 20 20 20 20 22 21 20 20 18 15 12 13 15 15 13 13 13 13 14 14
8 21 26 29 30 31 27 30 32 31 28 26 26 26 22 18 18 18 16 21 21 21 21 20 22 21 22 22 21 19 16 11 12 12 13 15 15 13 13 14 14 15 14
2 19 19 29 30 30 29 30 30 31 27 22 22 22 19 19 18 16 19 22 20 21 23 22 22 22 18 16 16 14 11 12 10 10 11 14 14 13 13 13 14 14 13
3 13 19 4 26 28 28 33 31 30 24 21 21 22 19 20 20 19 21 20 20 21 19 18 21 15 14 14 13 12 14 13 12 11 11 14 14 13 13 13 13 13 14
6 7 15 25 27 21 29 31 26 28 21 21 21 21 21 20 21 20 21 19 22 20 19 18 15 14 14 14 15 16 15 14 12 11 13 14 13 13 12 13 13 12 12
9 6 6 25 30 25 30 31 28 24 22 21 22 21 21 20 20 21 21 20 20 19 19 17 15 15 16 16 16 16 14 13 12 13 13 15 13 12 11 12 12 11 10
8 8 2 7 20 19 35 35 32 25 23 22 21 21 20 20 21 21 22 20 19 20 19 17 16 15 16 16 15 14 13 12 12 13 13 13 15 13 11 11 10 10 10
10 13 12 6 10 5 11 11 40 30 25 22 20 21 20 20 21 21 21 20 20 19 19 18 17 14 15 14 14 13 13 13 13 13 11 11 10 12 10 9 9 9 9
15 18 17 15 11 8 6 11 8 26 23 20 18 18 19 20 21 21 20 20 20 20 19 18 18 17 15 15 15 14 13 12 12 11 11 10 9 8 8 10 8 8 8
18 18 21 32 27 19 13 12 21 14 17 15 18 18 18 19 21 20 20 20 21 20 19 19 18 18 17 16 15 14 13 12 11 10 10 9 8 7 5 6 6 7 8
20 21 18 15 19 24 22 17 16 12 9 13 14 16 18 17 20 19 19 21 21 20 19 18 19 16 16 15 14 12 10 10 10 10 10 8 7 7 6 5 4 3 4
17 19 21 23 23 20 33 32 29 3 1 9 10 14 17 17 19 19 20 23 20 20 20 20 18 18 15 15 14 9 6 6 8 9 10 9 9 7 6 5 4 4 3
19 18 21 21 25 25 26 32 43 27 5 6 11 13 16 18 22 20 21 22 21 19 20 20 20 18 12 17 9 11 5 5 9 11 11 10 10 9 8 7 5 5 4
17 17 18 23 24 25 29 33 32 29 14 7 13 15 18 19 22 21 22 23 21 19 21 21 21 18 15 17 12 3 3 3 11 9 12 11 11 9 8 8 8 7 6
16 18 17 15 18 23 28 27 33 29 20 19 22 17 21 22 23 23 22 24 23 21 21 24 22 18 16 17 10 8 3 5 3 4 7 11 12 12 11 9 9 9 8
12 18 20 23 23 21 23 25 25 17 22 28 23 24 21 21 23 24 23 23 23 22 21 22 21 18 16 15 13 9 6 5 5 3 4 6 8 8 8 8 8 8 9
7 10 16 20 23 26 22 21 20 10 13 18 35 27 25 21 23 22 23 23 22 22 22 23 20 19 16 12 13 11 8 4 7 5 3 7 8 7 9 7 8 8 8
Wind_Direction
201 183 175 177 175 174 168 165 169 163 160 156 157 156 155 151 149 152 152 148 142 130 128 127 128 126 123 120 115 112 108 115 113 113 109 104 100 94 89 96 85 95 96
215 186 178 178 176 175 170 171 169 168 164 158 155 154 154 152 154 152 142 135 136 134 133 133 130 126 123 126 122 119 114 114 115 115 111 106 101 93 89 109 112 108 101
226 191 183 182 179 177 175 171 175 171 165 158 158 156 152 150 148 143 141 141 139 140 141 142 144 145 136 133 131 126 121 118 117 114 109 108 97 95 88 95 111 109 108
236 197 191 187 182 179 177 174 177 172 168 163 159 155 157 156 146 146 142 140 139 139 143 146 150 152 151 142 136 136 134 126 118 101 108 108 105 97 93 91 93 90 86
249 199 194 192 186 182 180 177 179 174 169 165 163 164 162 152 150 147 143 141 139 141 143 144 146 148 150 146 141 137 141 135 123 106 111 115 117 107 97 92 88 88 86
245 201 195 193 191 185 183 181 177 171 167 168 172 167 157 153 151 149 146 143 141 141 140 139 139 140 141 141 140 141 147 133 109 115 116 122 121 115 102 90 81 77 75
243 205 198 196 192 190 184 184 183 176 175 173 174 163 157 155 153 151 149 144 143 142 140 142 141 136 135 137 141 150 146 131 124 125 115 107 101 94 85 81 83 78 74
240 210 202 197 193 194 188 187 182 180 173 172 168 161 158 155 154 152 151 146 146 142 141 137 139 136 134 133 137 143 142 130 127 113 107 101 98 87 80 76 76 79 77
225 209 204 198 197 196 189 188 181 181 176 174 165 162 161 158 156 154 150 148 147 143 142 136 137 136 131 129 133 134 132 131 115 106 105 101 93 87 82 77 78 82 78
220 205 202 197 197 195 190 188 186 182 177 165 166 164 165 159 157 154 150 149 147 147 144 146 141 137 130 132 131 130 126 115 108 115 103 102 95 90 88 86 85 87 86
352 220 206 198 193 196 192 190 186 182 170 167 167 170 164 157 155 155 156 149 146 148 147 150 144 143 138 135 133 133 123 127 126 111 104 105 100 97 95 89 87 91 89
99 323 245 200 195 195 186 191 179 172 168 169 169 168 165 161 160 158 152 146 147 144 150 146 152 143 132 134 135 129 139 139 130 121 108 107 102 102 98 93 95 93 80
118 308 8 297 205 198 185 176 168 161 166 174 176 172 169 160 156 151 149 150 148 148 147 148 147 149 150 147 147 142 138 133 126 118 117 110 109 106 100 93 93 100 87
135 266 295 326 355 193 184 167 166 158 175 175 177 173 168 162 161 160 158 159 156 155 154 153 156 151 148 146 143 139 135 131 127 120 120 116 114 109 104 97 96 99 90
168 171 284 305 314 193 188 176 168 168 170 177 176 176 172 167 166 162 161 159 161 158 155 153 150 146 142 141 140 137 132 128 125 123 122 126 123 113 109 104 98 95 93
170 142 250 325 322 290 199 184 171 171 173 175 175 175 175 169 168 164 162 161 159 157 154 151 149 147 145 144 141 137 134 130 129 128 131 132 132 119 112 109 105 101 96
176 150 124 240 238 278 356 228 171 166 168 170 172 172 172 169 169 165 161 160 158 156 153 150 145 144 144 146 139 135 131 132 135 135 136 135 131 130 119 113 111 106 101
166 166 143 168 205 238 335 7 129 153 155 162 165 168 169 168 166 163 161 161 159 156 155 153 149 146 144 143 138 135 135 138 141 142 141 142 141 137 135 126 118 111 107
180 184 174 166 168 169 117 100 66 111 135 156 160 163 169 169 168 165 165 164 162 159 159 157 153 152 150 148 145 142 145 147 150 150 150 144 148 144 142 150 146 138 119
177 184 183 157 152 142 126 119 89 38 119 151 162 165 169 176 174 170 168 165 164 161 162 160 155 155 154 151 146 143 148 154 160 162 160 153 156 154 152 155 153 155 149
155 155 175 174 151 151 145 151 156 351 275 156 174 173 173 179 180 178 171 169 168 168 166 164 158 152 150 152 136 133 140 163 177 178 177 175 175 175 175 168 180 179 184
150 153 160 164 158 159 164 148 153 147 255 196 185 180 179 182 185 182 180 174 172 170 168 166 163 158 158 169 165 153 165 184 205 201 192 189 191 189 189 190 200 205 199
168 165 165 164 170 158 141 142 138 144 173 209 187 184 188 185 189 187 186 181 176 174 176 176 175 175 168 185 186 191 162 193 167 202 206 194 196 200 203 204 206 211 216
184 180 176 156 151 156 155 150 152 150 159 206 197 188 189 188 191 192 192 188 185 182 184 185 185 183 182 179 194 218 220 128 184 169 208 205 202 195 197 210 213 214 211
189 199 185 182 176 169 166 170 172 176 181 190 201 186 191 192 193 195 196 193 193 190 192 190 187 192 190 185 186 183 189 168 153 159 156 185 210 207 200 201 204 219 226
207 201 196 178 174 181 180 187 201 181 156 176 184 188 184 189 195 198 195 197 197 193 196 196 196 199 200 200 197 193 190 184 188 160 151 172 184 179 196 196 209 217 226
Height
763 766 766 770 774 777 780 782 785 787 788 791 794 796 798 800 802 804 805 806 808 810 811 813 814 815 817 817 818 818 818 818 819 820 821 822 822 823 822 822 824 824 824
764 766 768 770 773 777 780 783 785 788 789 791 794 797 799 801 803 804 805 807 808 811 812 814 816 816 818 819 820 820 820 821 821 822 823 824 824 824 824 825 826 825 825
766 768 770 771 773 776 780 783 785 788 790 792 794 797 799 801 803 805 807 808 809 811 813 814 816 817 818 819 820 821 822 823 824 825 825 826 827 826 826 826 826 826 826
767 769 771 773 775 776 779 783 785 787 790 792 793 796 798 801 804 806 807 808 809 810 813 814 815 817 818 820 821 822 823 825 826 826 827 828 829 829 829 828 829 829 829
767 767 770 773 776 777 779 782 784 787 789 792 794 796 799 801 804 806 807 809 810 811 812 814 815 817 819 821 822 824 825 826 827 828 829 830 831 832 832 832 831 831 831
766 767 769 772 775 777 779 782 784 787 789 792 795 797 799 801 803 806 807 809 810 811 813 815 817 818 820 822 823 825 826 828 829 830 830 831 832 833 834 834 834 834 834
765 766 768 771 774 776 777 781 783 786 788 792 795 797 799 801 803 805 807 808 810 812 814 816 818 819 821 823 824 826 827 829 831 831 832 833 835 835 836 836 836 836 836
764 765 766 770 772 775 776 779 783 785 788 790 794 797 799 801 803 804 807 808 811 813 815 816 819 821 822 824 826 828 829 831 832 833 834 836 837 837 838 838 839 838 838
762 763 765 768 770 773 775 779 782 784 786 789 794 797 799 801 803 805 807 809 812 814 816 817 820 822 824 825 827 829 831 832 833 835 837 838 839 840 840 840 840 839 839
759 761 763 765 769 770 774 778 781 783 785 789 793 796 798 801 804 806 808 810 812 815 817 819 821 824 825 826 828 831 833 835 836 838 839 840 841 842 842 842 842 841 841
758 760 761 762 765 769 772 777 779 781 784 789 792 795 798 802 805 807 810 811 813 815 818 821 822 825 826 828 830 833 835 838 839 841 842 843 843 844 844 844 844 844 843
757 759 755 758 763 767 768 773 776 779 783 789 792 795 798 800 804 807 810 812 815 817 819 821 823 826 829 831 833 835 837 839 841 843 845 845 845 846 846 846 846 847 846
754 760 757 752 765 765 765 769 772 775 783 788 792 794 797 799 802 806 809 813 815 818 820 823 825 828 830 832 834 836 838 841 843 845 847 847 848 849 849 849 849 849 848
753 750 758 747 759 763 767 765 769 771 780 786 791 793 796 798 801 804 807 812 814 817 821 824 827 828 830 832 834 837 839 841 844 846 848 849 850 851 851 851 851 852 851
752 749 756 746 763 757 766 763 766 770 776 784 788 792 794 796 800 802 806 810 813 816 820 824 827 829 830 833 835 838 840 843 844 847 849 850 851 852 853 853 853 853 854
745 748 739 757 760 766 764 761 759 764 773 779 784 788 792 794 798 801 804 808 812 815 819 822 826 830 831 833 836 838 841 843 846 847 850 851 852 853 854 854 855 855 855
744 743 735 753 771 763 758 760 751 758 768 776 781 785 789 792 797 800 803 806 810 814 818 822 825 830 832 834 836 839 842 844 847 848 850 852 853 854 855 855 856 856 856
747 748 744 749 751 757 764 757 745 757 764 774 780 785 787 791 796 800 803 806 809 812 817 821 824 828 832 834 836 839 842 845 847 849 850 852 853 855 855 856 857 857 857
748 750 751 753 752 750 754 762 745 765 764 776 779 783 788 791 794 797 802 804 808 811 815 819 823 826 831 834 836 839 841 844 846 849 850 851 852 855 857 856 858 857 857
742 742 739 736 735 738 739 755 751 768 774 778 781 782 786 792 794 797 800 803 806 809 814 818 822 827 830 834 837 839 842 844 846 847 849 850 852 854 856 857 858 859 859
737 734 739 742 735 735 736 747 759 768 779 776 782 784 785 791 794 797 799 801 805 809 812 817 820 825 830 834 838 841 843 844 846 847 847 849 850 853 855 857 859 859 858
743 745 748 744 743 749 753 742 742 756 778 779 784 784 785 789 793 797 799 800 803 808 812 815 819 824 828 831 834 838 840 844 844 845 845 846 848 849 851 853 857 859 859
738 741 739 745 749 750 742 747 749 754 774 782 781 781 784 786 792 795 799 800 802 806 810 813 817 820 824 828 831 832 834 831 839 845 844 842 846 847 850 851 852 854 856
738 738 741 740 743 745 749 749 747 751 763 775 777 779 783 785 789 794 798 799 801 803 808 811 814 818 820 822 827 829 829 829 834 841 843 842 843 842 844 849 850 851 850
736 737 740 742 743 744 744 746 751 758 755 763 773 776 781 784 788 792 795 797 800 801 806 809 812 816 818 821 824 827 828 828 829 831 834 842 843 843 844 846 847 850 847
737 739 740 742 741 744 749 755 757 758 758 764 766 774 777 782 786 790 791 795 798 799 803 808 810 814 818 820 821 825 826 826 826 825 830 835 836 840 843 843 845 846 846